Location: Alpine
(43.1636°N, 111.0180°W)
Time: 05:00:47
(UTC+00:00)

Tiros 1 despin weight - Pass Details

Date: 31 May 2022
Orbit: 591 x 639 km, 48.2° (Epoch: 30 June)

Event Time Altitude Azimuth Distance (km) Brightness Sun altitude
Rises 23:31:16 0° 236° (SW) 2,896 ? 34.8°
Reaches altitude 10° 23:33:36 10° 234° (SW) 1,985 ? 34.3°
Maximum altitude 23:38:08 70° 151° (SSE) 654 ? 33.5°
Drops below altitude 10° 23:42:37 10° 68° (ENE) 1,961 ? 32.7°
Sets 23:44:55 0° 66° (ENE) 2,859 ? 32.3°
